Weather History for Cecil Field, FL

Change the Weather History Date:

Saturday, December 21, 2013

  Actual Average (KJAX) Record (KJAX)
Temperature  
Mean Temperature 66 °F 54 °F  
Max Temperature 82 °F 66 °F 83 °F (2013)
Min Temperature 51 °F 43 °F 20 °F (1901)
Degree Days  
Heating Degree Days 0 11  
Month to date heating degree days 202  
Since 1 July heating degree days 375  
Cooling Degree Days 2 1  
Month to date cooling degree days 21  
Year to date cooling degree days 2665  
Growing Degree Days 16 (Base 50)    
Moisture  
Dew Point 60 °F    
Average Humidity 87    
Maximum Humidity 100    
Minimum Humidity 48    
Precipitation  
Precipitation 0.00 in 0.10 in 4.69 in (1916)
Month to date precipitation 1.89  
Year to date precipitation 51.48  
Snow  
Snow 0.00 in 0.00 in 0.00 in (2001)
Month to date snowfall 0.0  
Since 1 July snowfall 0.0  
Snow Depth -    
Sea Level Pressure  
Sea Level Pressure 30.12 in    
Wind  
Wind Speed 3 mph (SE)    
Max Wind Speed 17 mph    
Max Gust Speed 24 mph    
Visibility 8 miles    
Events Fog    
T = Trace of Precipitation, MM = Missing Value Source: NWS Daily Summary

Daily Weather History Graph

Daily Weather History Graph

Search for Another Location

Airport:

Trip Planner

Search our weather history database for the weather conditions in past years. The results will help you decide how hot, cold, wet, or windy it might be!

Date:

Astronomy

Dec. 21, 2013 Rise Set
Actual Time 7:19 AM EST 5:31 PM EST
Civil Twilight 6:53 AM EST 5:58 PM EST
Nautical Twilight 6:23 AM EST 6:28 PM EST
Astronomical Twilight 5:54 AM EST 6:57 PM EST
Moon 9:31 PM EST (12/21) 9:59 AM EST (12/21)
Length of Visible Light 11h 04m
Length of Day
10h 11m
Waning Gibbous, 84% of the Moon is Illuminated
Dec 21
Waning Gibbous
Dec 25
Last Quarter
Jan 1
New
Jan 7
First Quarter
Jan 15
Full

Hourly Weather History & Observations

Time (EST) Temp. Heat Index Dew Point Humidity Pressure Visibility Wind Dir Wind Speed Gust Speed Precip Events Conditions
12:15 AM 53.6 °F - 53.6 °F 100% 30.16 in 10.0 mi Calm Calm - N/A   Clear
12:35 AM 53.6 °F - 53.6 °F 100% 30.16 in 10.0 mi Calm Calm - N/A   Clear
12:55 AM 53.6 °F - 51.8 °F 94% 30.15 in 10.0 mi Calm Calm - N/A   Clear
1:15 AM 53.6 °F - 53.6 °F 100% 30.15 in 10.0 mi Calm Calm - N/A   Clear
1:35 AM 53.6 °F - 51.8 °F 94% 30.14 in 9.0 mi SE 3.5 mph - N/A   Clear
1:55 AM 53.6 °F - 53.6 °F 100% 30.14 in 9.0 mi Calm Calm - N/A   Clear
2:15 AM 57.2 °F - 55.4 °F 94% 30.14 in 10.0 mi SE 4.6 mph - N/A   Clear
2:35 AM 59.0 °F - 59.0 °F 100% 30.13 in 10.0 mi SE 4.6 mph - N/A   Clear
2:55 AM 62.6 °F - 59.0 °F 88% 30.13 in 10.0 mi SSE 3.5 mph - N/A   Clear
3:15 AM 60.8 °F - 59.0 °F 94% 30.13 in 10.0 mi Calm Calm - N/A   Clear
3:35 AM 57.2 °F - 57.2 °F 100% 30.13 in 7.0 mi Calm Calm - N/A   Clear
3:55 AM 55.4 °F - 55.4 °F 100% 30.13 in 5.0 mi Calm Calm - N/A   Clear
4:15 AM 55.4 °F - 55.4 °F 100% 30.14 in 0.2 mi Calm Calm - N/A Fog Fog
4:35 AM 55.4 °F - 55.4 °F 100% 30.13 in 0.2 mi Calm Calm - N/A Fog Fog
4:55 AM 53.6 °F - 53.6 °F 100% 30.14 in 0.2 mi Calm Calm - N/A Fog Fog
5:15 AM 55.4 °F - 55.4 °F 100% 30.14 in 0.2 mi Calm Calm - N/A Fog Fog
5:35 AM 53.6 °F - 53.6 °F 100% 30.14 in 0.8 mi Calm Calm - N/A   Mist
5:55 AM 53.6 °F - 53.6 °F 100% 30.15 in 0.5 mi Calm Calm - N/A Fog Fog
6:15 AM 53.6 °F - 53.6 °F 100% 30.15 in 0.2 mi Calm Calm - N/A Fog Fog
6:35 AM 51.8 °F - 51.8 °F 100% 30.15 in 0.8 mi Calm Calm - N/A   Mist
6:50 AM 51.8 °F - 51.8 °F 100% 30.15 in 3.0 mi Calm Calm - N/A   Clear
7:50 AM 55.4 °F - 55.4 °F 100% 30.15 in 7.0 mi Calm Calm - N/A   Clear
8:50 AM 64.4 °F - 62.6 °F 94% 30.15 in 10.0 mi Calm Calm - N/A   Clear
9:50 AM 69.8 °F - 66.2 °F 88% 30.16 in 10.0 mi SSE 6.9 mph - N/A   Clear
10:50 AM 77.0 °F - 66.2 °F 69% 30.15 in 10.0 mi SSE 13.8 mph - N/A   Clear
11:50 AM 78.8 °F - 62.6 °F 57% 30.12 in 10.0 mi South 11.5 mph - N/A   Clear
12:50 PM 82.4 °F 82.9 °F 60.8 °F 48% 30.09 in 10.0 mi South 17.3 mph 23.0 mph N/A   Clear
1:50 PM 82.4 °F 82.9 °F 60.8 °F 48% 30.05 in 10.0 mi SSE 13.8 mph 24.2 mph N/A   Clear
2:50 PM 82.4 °F 82.9 °F 60.8 °F 48% 30.04 in 10.0 mi SSE 15.0 mph - N/A   Clear
3:50 PM 82.4 °F 83.4 °F 62.6 °F 51% 30.04 in 10.0 mi SSE 11.5 mph - N/A   Clear
4:50 PM 80.6 °F 82.3 °F 64.4 °F 58% 30.06 in 10.0 mi South 5.8 mph - N/A   Clear
5:50 PM 75.2 °F - 64.4 °F 69% 30.07 in 10.0 mi Calm Calm - N/A   Clear
6:50 PM 73.4 °F - 64.4 °F 73% 30.08 in 10.0 mi Calm Calm - N/A   Clear
7:50 PM 71.6 °F - 66.2 °F 83% 30.10 in 10.0 mi Calm Calm - N/A   Clear
8:15 PM 71.6 °F - 68.0 °F 88% 30.10 in 10.0 mi ESE 3.5 mph - N/A   Clear
8:35 PM 71.6 °F - 68.0 °F 88% 30.10 in 10.0 mi ESE 3.5 mph - N/A   Clear
8:55 PM 71.6 °F - 68.0 °F 88% 30.10 in 10.0 mi ESE 4.6 mph - N/A   Clear
9:15 PM 71.6 °F - 68.0 °F 88% 30.10 in 10.0 mi Calm Calm - N/A   Clear
9:35 PM 71.6 °F - 68.0 °F 88% 30.10 in 10.0 mi ESE 4.6 mph - N/A   Clear
9:55 PM 71.6 °F - 68.0 °F 88% 30.10 in 10.0 mi SE 5.8 mph - N/A   Clear
10:15 PM 71.6 °F - 68.0 °F 88% 30.10 in 10.0 mi SE 5.8 mph - N/A   Clear
10:35 PM 71.6 °F - 68.0 °F 88% 30.10 in 10.0 mi SSE 5.8 mph - N/A   Clear
10:55 PM 71.6 °F - 68.0 °F 88% 30.10 in 10.0 mi SE 6.9 mph - N/A   Clear
11:15 PM 71.6 °F - 68.0 °F 88% 30.10 in 10.0 mi SE 6.9 mph - N/A   Clear
11:35 PM 71.6 °F - 68.0 °F 88% 30.09 in 9.0 mi SE 5.8 mph - N/A   Clear
11:55 PM 71.6 °F - 68.0 °F 88% 30.10 in 10.0 mi SE 5.8 mph - N/A   Clear